Location: Calvera
(42.3882°N, 0.6137°E)
Time: 19:35:38
(UTC+00:00)

ATLAS 3B R/B - Pass Details

Date: 28 October 2020
Orbit: 1014 x 1181 km, 63.8° (Epoch: 23 November)

Event Time Altitude Azimuth Distance (km) Brightness Sun altitude
Exits shadow 04:33:01 22° 218° (SW) 2,037 3.8 -21.5°
Maximum altitude 04:37:27 83° 304° (NW) 1,029 2.5 -20.6°
Drops below altitude 10° 04:44:08 10° 34° (NE) 2,838 5.4 -19.4°
Sets 04:46:47 0° 35° (NE) 3,811 6.1 -18.9°
